KC2TER Weather Reports


time (UTC)temp
C
wind
direction
speed
KPH
gust
KPH
rain 1hr
cm
rain 24hr
cm
rain mn
cm
humidity
%
barometer
mb
20260504223339 18 99 0.0 3.2 0.00 0.00 0.00 61 1009.7
20260504222836 18 106 4.8 8.0 0.00 0.00 0.00 60 1009.8
20260504222333 18 75 8.0 9.7 0.00 0.00 0.00 59 1010.0
20260504221831 19 62 4.8 8.0 0.00 0.00 0.00 59 1009.6
20260504221327 18 96 1.6 9.7 0.00 0.00 0.00 58 1009.8
20260504220825 19 103 0.0 8.0 0.00 0.00 0.00 58 1009.9
20260504220321 19 64 3.2 8.0 0.00 0.00 0.00 58 1009.8
20260504215819 18 98 1.6 3.2 0.00 0.00 0.00 60 1009.9
20260504215315 19 76 1.6 9.7 0.00 0.00 0.00 59 1010.1
20260504214811 20 93 3.2 3.2 0.00 0.00 0.00 58 1010.2
20260504214308 19 102 1.6 3.2 0.00 0.00 0.00 58 1010.0
20260504213804 19 58 3.2 11.3 0.00 0.00 0.00 58 1010.2
20260504213300 20 338 8.0 11.3 0.00 0.00 0.00 56 1010.3
20260504212758 20 103 3.2 4.8 0.00 0.00 0.00 56 1010.1
20260504212254 20 82 4.8 8.0 0.00 0.00 0.00 57 1010.1
20260504211752 20 109 3.2 9.7 0.00 0.00 0.00 56 1009.9
20260504211247 20 31 3.2 9.7 0.00 0.00 0.00 54 1009.9
20260504210745 20 103 0.0 4.8 0.00 0.00 0.00 55 1010.1
20260504210242 20 95 4.8 14.5 0.00 0.00 0.00 52 1010.0
20260504205739 20 103 1.6 9.7 0.00 0.00 0.00 53 1010.0
20260504205237 20 20 6.4 11.3 0.00 0.00 0.00 52 1009.8
20260504204735 20 98 6.4 14.5 0.00 0.00 0.00 51 1009.8
20260504204233 20 142 8.0 12.9 0.00 0.00 0.00 52 1009.9
20260504203732 20 97 3.2 16.1 0.00 0.00 0.00 52 1009.9
20260504203229 20 114 6.4 12.9 0.00 0.00 0.00 55 1009.7
20260504202729 21 105 1.6 11.3 0.00 0.00 0.00 52 1009.8
20260504202227 21 121 1.6 8.0 0.00 0.00 0.00 53 1010.0
20260504201724 21 72 1.6 14.5 0.00 0.00 0.00 53 1009.9
20260504201221 21 97 1.6 4.8 0.00 0.00 0.00 52 1009.7
20260504200718 21 113 3.2 3.2 0.00 0.00 0.00 53 1010.1
20260504200214 21 115 1.6 8.0 0.00 0.00 0.00 53 1010.2
20260504195711 21 104 3.2 8.0 0.00 0.00 0.00 54 1010.1
20260504195207 21 66 3.2 9.7 0.00 0.00 0.00 54 1010.3
20260504194704 21 94 1.6 4.8 0.00 0.00 0.00 53 1010.2
20260504194200 22 100 0.0 4.8 0.00 0.00 0.00 53 1010.1
20260504193656 22 108 4.8 8.0 0.00 0.00 0.00 53 1010.2
20260504193154 22 48 1.6 9.7 0.00 0.00 0.00 52 1010.1
20260504192652 22 111 0.0 1.6 0.00 0.00 0.00 51 1010.2
20260504192150 22 103 1.6 9.7 0.00 0.00 0.00 51 1010.5
20260504191648 22 120 4.8 16.1 0.00 0.00 0.00 49 1010.4
20260504191144 23 114 1.6 9.7 0.00 0.00 0.00 44 1010.5
20260504190640 22 123 1.6 11.3 0.00 0.00 0.00 35 1010.5
20260504190137 22 124 4.8 16.1 0.00 0.00 0.00 36 1010.8
20260504185633 22 110 4.8 9.7 0.00 0.00 0.00 34 1010.8
20260504185130 23 99 4.8 9.7 0.00 0.00 0.00 34 1010.8
20260504184626 22 104 9.7 14.5 0.00 0.00 0.00 35 1010.8
20260504184121 22 117 9.7 14.5 0.00 0.00 0.00 36 1011.0
20260504183619 21 109 8.0 12.9 0.00 0.00 0.00 36 1010.9
20260504183116 22 127 16.1 24.1 0.00 0.00 0.00 35 1011.1
20260504182614 22 66 6.4 9.7 0.00 0.00 0.00 35 1011.0
20260504182111 22 118 4.8 14.5 0.00 0.00 0.00 36 1011.3
20260504181608 21 161 9.7 12.9 0.00 0.00 0.00 36 1011.1
20260504181106 21 114 11.3 14.5 0.00 0.00 0.00 37 1011.4
20260504180604 21 134 16.1 16.1 0.00 0.00 0.00 36 1011.4
20260504180103 21 121 6.4 20.9 0.00 0.00 0.00 36 1011.5
20260504175600 22 80 1.6 14.5 0.00 0.00 0.00 37 1011.6
20260504175056 22 104 3.2 9.7 0.00 0.00 0.00 37 1011.4
20260504174555 21 120 6.4 12.9 0.00 0.00 0.00 36 1011.6
20260504174051 21 128 8.0 14.5 0.00 0.00 0.00 37 1011.6
20260504173548 21 90 8.0 14.5 0.00 0.00 0.00 36 1011.7
20260504173046 21 141 11.3 14.5 0.00 0.00 0.00 36 1011.9
20260504172541 21 49 11.3 20.9 0.00 0.00 0.00 36 1011.9
20260504172038 21 109 1.6 14.5 0.00 0.00 0.00 38 1011.9
20260504171535 21 108 8.0 16.1 0.00 0.00 0.00 39 1011.9
20260504171032 21 94 3.2 12.9 0.00 0.00 0.00 37 1012.2
20260504170528 21 79 4.8 12.9 0.00 0.00 0.00 36 1012.0
20260504150912 18 115 4.8 9.7 0.00 0.00 0.00 43 1013.4
20260504150409 18 120 4.8 22.5 0.00 0.00 0.00 43 1013.3
20260504140835 17 110 3.2 9.7 0.00 0.00 0.00 45 1013.8
20260504140331 17 102 1.6 14.5 0.00 0.00 0.00 45 1013.8
20260504130800 15 116 3.2 8.0 0.00 0.00 0.00 56 1014.3
20260504130256 15 112 8.0 9.7 0.00 0.00 0.00 57 1014.4
20260504120219 12 139 8.0 17.7 0.00 0.00 0.00 68 1014.8
20260504110647 10 110 8.0 14.5 0.00 0.00 0.00 72 1015.0
20260504110143 10 148 11.3 14.5 0.00 0.00 0.00 72 1015.2
20260504100609 9 137 9.7 12.9 0.00 0.00 0.00 70 1014.9
20260504100107 9 159 9.7 14.5 0.00 0.00 0.00 69 1015.0
20260504082003 8 117 4.8 9.7 0.00 0.00 0.00 64 1014.7
20260504081500 8 127 4.8 9.7 0.00 0.00 0.00 63 1014.6
20260504080955 8 110 1.6 12.9 0.00 0.00 0.00 63 1014.7
20260504080452 8 141 6.4 8.0 0.00 0.00 0.00 63 1014.7
20260504050305 10 168 6.4 11.3 0.00 0.00 0.00 55 1014.0
20260504045803 10 137 4.8 11.3 0.00 0.00 0.00 55 1014.0
20260504045304 10 124 6.4 12.9 0.00 0.00 0.00 55 1014.0
20260504044800 9 130 4.8 8.0 0.00 0.00 0.00 56 1014.0
20260504044258 9 120 1.6 11.3 0.00 0.00 0.00 55 1013.7
20260504043755 10 115 4.8 8.0 0.00 0.00 0.00 55 1013.7
20260504043251 9 104 4.8 8.0 0.00 0.00 0.00 56 1013.7
20260504042749 10 114 1.6 8.0 0.00 0.00 0.00 55 1013.8
20260504042245 10 121 4.8 4.8 0.00 0.00 0.00 55 1013.7
20260504041742 9 109 6.4 8.0 0.00 0.00 0.00 55 1013.9
20260504041238 9 103 3.2 9.7 0.00 0.00 0.00 55 1013.7
20260504040734 10 105 3.2 8.0 0.00 0.00 0.00 55 1013.6
20260504040232 10 113 3.2 9.7 0.00 0.00 0.00 55 1013.5
20260504035728 9 120 4.8 8.0 0.00 0.00 0.00 55 1013.5
20260504035225 10 127 6.4 11.3 0.00 0.00 0.00 54 1013.4
20260504034723 10 102 3.2 8.0 0.00 0.00 0.00 55 1013.4
20260504034220 10 128 4.8 9.7 0.00 0.00 0.00 54 1013.3
20260504033717 10 117 3.2 4.8 0.00 0.00 0.00 54 1013.3
20260504033214 10 114 4.8 8.0 0.00 0.00 0.00 54 1013.4
20260504032711 10 111 4.8 4.8 0.00 0.00 0.00 54 1013.1
20260504032209 10 117 3.2 8.0 0.00 0.00 0.00 54 1013.4
20260504031705 10 126 4.8 8.0 0.00 0.00 0.00 53 1013.4
20260504031202 10 116 4.8 4.8 0.00 0.00 0.00 53 1013.3
20260504030658 10 129 4.8 9.7 0.00 0.00 0.00 54 1013.3
20260504030155 10 131 4.8 4.8 0.00 0.00 0.00 54 1013.2
20260504025652 10 122 4.8 8.0 0.00 0.00 0.00 53 1013.2
20260504025148 10 108 3.2 4.8 0.00 0.00 0.00 53 1013.1
20260504024646 10 115 3.2 8.0 0.00 0.00 0.00 52 1013.1
20260504024142 10 116 3.2 4.8 0.00 0.00 0.00 52 1013.4
20260504023639 10 137 3.2 4.8 0.00 0.00 0.00 53 1013.4
20260504023135 10 117 3.2 3.2 0.00 0.00 0.00 52 1013.3
20260504022632 10 115 1.6 4.8 0.00 0.00 0.00 51 1013.0
20260504022127 10 113 1.6 3.2 0.00 0.00 0.00 51 1013.3
20260504021626 10 115 1.6 4.8 0.00 0.00 0.00 51 1013.1
20260504021122 10 113 3.2 4.8 0.00 0.00 0.00 51 1013.2
20260504020619 10 113 3.2 3.2 0.00 0.00 0.00 50 1013.1
20260504020115 10 115 1.6 4.8 0.00 0.00 0.00 50 1013.3
20260504015612 10 110 1.6 3.2 0.00 0.00 0.00 51 1013.4
20260504015108 10 121 3.2 4.8 0.00 0.00 0.00 51 1013.1
20260504014604 10 115 3.2 3.2 0.00 0.00 0.00 51 1013.2
20260504014101 10 111 1.6 3.2 0.00 0.00 0.00 50 1013.1
20260504013559 10 119 1.6 3.2 0.00 0.00 0.00 50 1013.2
20260504013055 11 110 3.2 4.8 0.00 0.00 0.00 50 1013.1
20260504012553 11 113 1.6 3.2 0.00 0.00 0.00 49 1012.9
20260504012051 11 114 1.6 3.2 0.00 0.00 0.00 49 1012.9
20260504011547 11 114 0.0 1.6 0.00 0.00 0.00 50 1012.7
20260504011043 11 110 0.0 0.0 0.00 0.00 0.00 48 1012.9
20260504010539 11 113 0.0 0.0 0.00 0.00 0.00 48 1012.5
20260504010036 11 109 3.2 3.2 0.00 0.00 0.00 47 1012.6
20260504005532 11 114 1.6 4.8 0.00 0.00 0.00 47 1012.5
20260504005030 11 114 1.6 3.2 0.00 0.00 0.00 47 1012.5
20260504004528 11 110 1.6 3.2 0.00 0.00 0.00 47 1012.5
20260504004024 11 116 1.6 3.2 0.00 0.00 0.00 46 1012.2
20260504003520 11 109 0.0 1.6 0.00 0.00 0.00 47 1012.2
20260504003018 11 114 1.6 1.6 0.00 0.00 0.00 45 1012.3
20260504002514 11 109 0.0 0.0 0.00 0.00 0.00 47 1012.1
20260504002012 11 109 0.0 1.6 0.00 0.00 0.00 47 1011.9
20260504001509 12 109 0.0 0.0 0.00 0.00 0.00 46 1011.9
20260504001005 12 110 0.0 0.0 0.00 0.00 0.00 45 1011.8
20260504000503 12 111 0.0 0.0 0.00 0.00 0.00 45 1011.8
20260504000000 12 110 0.0 1.6 0.00 0.00 0.00 42 1011.9
20260503235458 13 108 0.0 0.0 0.00 0.00 0.00 43 1011.7
20260503234955 13 110 0.0 1.6 0.00 0.00 0.00 40 1011.6
20260503234452 13 112 1.6 3.2 0.00 0.00 0.00 37 1011.4
20260503233950 13 112 1.6 3.2 0.00 0.00 0.00 37 1011.5
20260503233446 13 113 1.6 4.8 0.00 0.00 0.00 37 1011.5
20260503232943 14 103 3.2 8.0 0.00 0.00 0.00 37 1011.4
20260503232440 14 106 1.6 4.8 0.00 0.00 0.00 37 1011.6
20260503231938 14 123 3.2 11.3 0.00 0.00 0.00 36 1011.6
20260503231435 14 99 1.6 9.7 0.00 0.00 0.00 36 1011.5
20260503230931 14 102 4.8 8.0 0.00 0.00 0.00 36 1011.5
20260503230428 14 118 3.2 4.8 0.00 0.00 0.00 37 1011.3
20260503225926 14 120 6.4 9.7 0.00 0.00 0.00 36 1011.4
20260503225422 14 134 4.8 11.3 0.00 0.00 0.00 35 1011.5
20260503224918 14 94 11.3 14.5 0.00 0.00 0.00 34 1011.4
20260503224415 15 115 1.6 8.0 0.00 0.00 0.00 35 1011.2
20260503223913 15 107 8.0 12.9 0.00 0.00 0.00 34 1011.1